ON8GE-13 Weather Reports


Display with metric or nautical units.
time (UTC)temp
F
wind
direction
speed
MPH
gust
MPH
rain 1hr
in
rain 24hr
in
rain mn
in
humidity
%
barometer
mb
20260510053057 49 13 6.0 10.0 0.00 0.00 0.00 89 1015.7
20260510052052 49 20 6.0 11.0 0.00 0.00 0.00 88 1015.8
20260510050052 49 351 5.0 9.0 0.00 0.00 0.00 89 1015.8
20260510045057 48 7 5.0 9.0 0.00 0.00 0.00 90 1015.9
20260510043053 48 11 4.0 6.0 0.00 0.00 0.00 89 1015.8
20260510042054 48 14 4.0 9.0 0.00 0.00 0.00 89 1015.8
20260510041054 48 7 6.0 10.0 0.00 0.00 0.00 89 1015.8
20260510040056 48 8 7.0 12.0 0.00 0.00 0.00 89 1015.8
20260510035056 48 5 5.0 9.0 0.00 0.00 0.00 89 1015.7
20260510034055 48 3 5.0 8.0 0.00 0.00 0.00 89 1015.7
20260510033056 48 5 4.0 7.0 0.00 0.00 0.00 88 1015.7
20260510032055 48 3 3.0 6.0 0.00 0.00 0.00 88 1015.8
20260510031055 48 355 3.0 5.0 0.00 0.00 0.00 88 1016.0
20260510030053 48 12 3.0 7.0 0.00 0.00 0.00 87 1016.2
20260510025052 48 9 4.0 8.0 0.00 0.00 0.00 87 1016.1
20260510023055 49 359 4.0 7.0 0.00 0.00 0.00 86 1016.1
20260510021055 49 357 4.0 7.0 0.00 0.00 0.00 86 1016.1
20260510020054 49 355 3.0 6.0 0.00 0.00 0.00 86 1016.1
20260510015053 49 356 3.0 6.0 0.00 0.00 0.00 85 1016.1
20260510014054 49 358 3.0 5.0 0.00 0.00 0.00 84 1016.2
20260510013056 50 358 3.0 6.0 0.00 0.00 0.00 83 1016.3
20260510012053 50 6 4.0 6.0 0.00 0.00 0.00 83 1016.5
20260510011052 50 2 3.0 6.0 0.00 0.00 0.00 82 1016.5
20260510010055 50 2 4.0 7.0 0.00 0.00 0.00 82 1016.5
20260510005053 51 6 5.0 7.0 0.00 0.00 0.00 81 1016.6
20260510004055 51 7 4.0 7.0 0.00 0.00 0.00 81 1016.8
20260510003056 51 8 5.0 7.0 0.00 0.00 0.00 81 1016.8
20260510002056 51 12 4.0 6.0 0.00 0.00 0.00 80 1016.8
20260510000055 52 9 5.0 8.0 0.00 0.00 0.00 79 1016.9
20260509235108 52 6 5.0 8.0 0.00 0.00 0.00 79 1016.9
20260509233103 52 1 3.0 6.0 0.00 0.00 0.00 79 1016.9
20260509232106 52 6 4.0 6.0 0.00 0.00 0.00 78 1017.0
20260509231101 53 6 4.0 6.0 0.00 0.00 0.00 77 1017.1
20260509230105 53 1 3.0 5.0 0.00 0.00 0.00 76 1017.1
20260509225107 53 5 4.0 7.0 0.00 0.00 0.00 76 1017.1
20260509224105 53 11 4.0 6.0 0.00 0.00 0.00 75 1017.1
20260509223101 54 17 4.0 6.0 0.00 0.00 0.00 74 1017.1
20260509222105 54 20 5.0 10.0 0.00 0.00 0.00 72 1017.1
20260509221105 54 23 4.0 6.0 0.00 0.00 0.00 72 1017.1
20260509220104 55 21 4.0 5.0 0.00 0.00 0.00 71 1017.1
20260509215113 55 22 4.0 6.0 0.00 0.00 0.00 71 1017.1
20260509214110 55 11 4.0 7.0 0.00 0.00 0.00 71 1017.1
20260509213110 55 5 4.0 8.0 0.00 0.00 0.00 72 1017.1
20260509210106 57 20 4.0 7.0 0.00 0.00 0.00 68 1017.1
20260509205111 57 24 4.0 8.0 0.00 0.00 0.00 68 1017.0
20260509204110 57 14 4.0 6.0 0.00 0.00 0.00 67 1017.0
20260509203111 57 20 4.0 7.0 0.00 0.00 0.00 68 1017.0
20260509200111 58 16 3.0 5.0 0.00 0.00 0.00 68 1016.9
20260509195113 58 19 3.0 6.0 0.00 0.00 0.00 67 1016.8
20260509194107 58 21 4.0 6.0 0.00 0.00 0.00 66 1016.9
20260509193108 59 21 4.0 7.0 0.00 0.00 0.00 66 1016.8
20260509192109 59 20 4.0 7.0 0.00 0.00 0.00 65 1016.8
20260509191107 60 15 4.0 8.0 0.00 0.00 0.00 63 1016.7
20260509190110 60 15 4.0 7.0 0.00 0.00 0.00 61 1016.5
20260509184108 62 11 5.0 9.0 0.00 0.00 0.00 58 1016.4
20260509183110 62 9 6.0 10.0 0.00 0.00 0.00 58 1016.4
20260509182106 63 5 5.0 11.0 0.00 0.00 0.00 57 1016.3
20260509181104 64 8 5.0 8.0 0.00 0.00 0.00 56 1016.3
20260509180105 65 11 4.0 7.0 0.00 0.00 0.00 55 1016.2
20260509175102 65 5 5.0 9.0 0.00 0.00 0.00 54 1016.3
20260509174107 66 12 4.0 7.0 0.00 0.00 0.00 53 1016.3
20260509173103 67 33 6.0 11.0 0.00 0.00 0.00 50 1016.2
20260509171103 68 17 5.0 10.0 0.00 0.00 0.00 50 1016.0
20260509170104 68 12 6.0 10.0 0.00 0.00 0.00 49 1016.0
20260509164103 68 22 7.0 11.0 0.00 0.00 0.00 50 1016.1
20260509163104 68 6 6.0 11.0 0.00 0.00 0.00 49 1016.0
20260509162103 68 18 5.0 9.0 0.00 0.00 0.00 50 1016.0
20260509161103 69 36 5.0 9.0 0.00 0.00 0.00 51 1016.0
20260509160058 69 32 5.0 12.0 0.00 0.00 0.00 49 1016.0
20260509155100 69 16 5.0 13.0 0.00 0.00 0.00 48 1016.1
20260509154100 69 40 5.0 11.0 0.00 0.00 0.00 49 1016.1
20260509153101 70 32 5.0 12.0 0.00 0.00 0.00 50 1016.1
20260509151059 70 10 5.0 10.0 0.00 0.00 0.00 50 1016.3
20260509145058 70 26 6.0 12.0 0.00 0.00 0.00 51 1016.4
20260509143058 70 11 7.0 12.0 0.00 0.00 0.00 53 1016.6
20260509142056 69 24 5.0 11.0 0.00 0.00 0.00 51 1016.7
20260509141058 70 4 6.0 12.0 0.00 0.00 0.00 51 1016.7
20260509135056 69 29 5.0 11.0 0.00 0.00 0.00 51 1016.8
20260509134057 70 24 6.0 12.0 0.00 0.00 0.00 53 1017.0
20260509133059 70 20 7.0 13.0 0.00 0.00 0.00 52 1017.0
20260509131058 70 29 7.0 15.0 0.00 0.00 0.00 54 1017.2
20260509130056 70 19 6.0 12.0 0.00 0.00 0.00 54 1017.2
20260509125058 69 31 6.0 15.0 0.00 0.00 0.00 55 1017.4
20260509124056 69 21 5.0 11.0 0.00 0.00 0.00 53 1017.5
20260509123057 69 354 6.0 12.0 0.00 0.00 0.00 56 1017.5
20260509122053 69 31 6.0 11.0 0.00 0.00 0.00 55 1017.6
20260509121057 69 23 6.0 12.0 0.00 0.00 0.00 56 1017.7
20260509120058 69 136 5.0 12.0 0.00 0.00 0.00 58 1017.9
20260509114056 68 25 7.0 13.0 0.00 0.00 0.00 55 1018.1
20260509112054 68 47 6.0 12.0 0.00 0.00 0.00 56 1018.2
20260509110056 68 104 5.0 14.0 0.00 0.00 0.00 57 1018.4
20260509105055 68 135 5.0 10.0 0.00 0.00 0.00 57 1018.5
20260509103056 67 179 4.0 11.0 0.00 0.00 0.00 56 1018.6
20260509102058 67 34 7.0 13.0 0.00 0.00 0.00 58 1018.7
20260509100056 66 39 6.0 11.0 0.00 0.00 0.00 59 1018.7
20260509095058 66 36 6.0 13.0 0.00 0.00 0.00 58 1018.8
20260509094056 66 34 4.0 13.0 0.00 0.00 0.00 59 1018.8
20260509092055 65 26 5.0 9.0 0.00 0.00 0.00 63 1018.9
20260509091058 64 25 5.0 7.0 0.00 0.00 0.00 65 1019.0
20260509090056 64 35 4.0 8.0 0.00 0.00 0.00 66 1019.0
20260509085054 62 32 4.0 7.0 0.00 0.00 0.00 66 1019.0
20260509084056 62 28 4.0 8.0 0.00 0.00 0.00 68 1019.1
20260509083056 62 11 4.0 7.0 0.00 0.00 0.00 70 1019.2
20260509082059 61 23 4.0 7.0 0.00 0.00 0.00 71 1019.2
20260509081059 60 19 4.0 7.0 0.00 0.00 0.00 70 1019.3
20260509080056 59 13 4.0 7.0 0.00 0.00 0.00 73 1019.4
20260509075055 59 29 3.0 6.0 0.00 0.00 0.00 73 1019.3
20260509074057 59 32 2.0 5.0 0.00 0.00 0.00 74 1019.3
20260509073058 58 319 2.0 5.0 0.00 0.00 0.00 71 1019.5
20260509072058 58 261 2.0 4.0 0.00 0.00 0.00 72 1019.6
20260509071055 57 30 3.0 5.0 0.00 0.00 0.00 72 1019.6
20260509070051 56 28 3.0 5.0 0.00 0.00 0.00 76 1019.6
20260509065055 55 55 2.0 6.0 0.00 0.00 0.00 77 1019.6
20260509064055 54 39 2.0 5.0 0.00 0.00 0.00 78 1019.6
20260509063055 53 32 3.0 5.0 0.00 0.00 0.00 79 1019.6
20260509062056 51 32 3.0 6.0 0.00 0.00 0.00 83 1019.7
20260509061057 50 31 3.0 5.0 0.00 0.00 0.00 86 1019.7
20260509060057 49 28 3.0 5.0 0.00 0.00 0.00 87 1019.7
20260509055051 49 32 3.0 5.0 0.00 0.00 0.00 89 1019.7
20260509054054 48 38 2.0 5.0 0.00 0.00 0.00 89 1019.7